Location: Newark
(37.8444°N, 127.0614°E)
Time: 00:30:06
(UTC+00:00)

XW-2F - Pass Details

Date: 24 January 2020
Orbit: 502 x 523 km, 97.5° (Epoch: 24 February)

Event Time Altitude Azimuth Distance (km) Brightness Sun altitude
Rises 20:36:08 0° 34° (NE) 2,605 ? -24.7°
Reaches altitude 10° 20:39:06 10° 60° (ENE) 1,713 ? -24.2°
Maximum altitude 20:41:04 14° 93° (E) 1,478 ? -23.8°
Drops below altitude 10° 20:43:02 10° 126° (SE) 1,705 ? -23.4°
Sets 20:45:58 0° 152° (SSE) 2,583 ? -22.8°
